Location: Newark
(44.3248°N, 23.7839°E)
Time: 17:07:59
(UTC+00:00)

STARS - Pass Details

Date: 25 April 2024
Orbit: 604 x 620 km, 98.1° (Epoch: 28 May)

Event Time Altitude Azimuth Distance (km) Brightness Sun altitude
Rises 21:57:38 0° 21° (NNE) 2,895 ? -31.8°
Reaches altitude 10° 21:59:58 10° 30° (NNE) 1,982 ? -31.9°
Enters shadow 22:01:28 20° 41° (NE) 1,453 ? -31.9°
